[[{"header":{"parameterUnit":"m.s-1","parameterCategory":1,"la1":30.2991,"la2":30.254,"lo1":-89.0895,"lo2":-89.0444,"dy":0.0017,"dx":0.0017,"nx":28,"ny":28,"refTime":"2025-04-12T03:00:00:Z","depth":0,"parameterNumber":2,"parameterNumberName":"U-component_of_WINDS"},"data":[0,0,0,0,0,0,0,0,0,0,0,0,0,0,0,0,0,0,0,0,0,0,0,0,0,0,0,0,0,0,0,0,0,0,0,0,0,0,0,0,0,0,0,0,0,0,0,0,0,0,0,0,0,0,0,0,0,0,3.0673,3.0673,0,3.0678,3.0678,3.0678,3.0664,3.0664,3.0664,3.0663,3.067,3.0671,3.0672,0,0,0,0,0,0,0,0,0,0,0,0,0,3.0653,3.0654,3.0673,3.0673,3.0673,3.0678,3.0678,3.0678,3.0665,3.0664,3.0663,3.0663,3.067,3.0671,3.0672,0,0,0,0,0,0,0,0,0,0,0,0,0,3.0661,3.0654,3.0673,3.0666,3.0666,3.0678,3.0678,3.0678,3.0665,3.0664,3.0663,3.0663,3.067,3.0671,3.0672,3.0691,0,0,3.0674,3.0675,0,0,0,0,0,0,0,0,3.066,3.0661,3.0667,3.0667,3.0666,3.067,3.0674,3.0683,3.0665,3.0665,3.0663,3.0662,3.0671,3.0672,3.0674,3.0691,3.0691,3.0675,3.0675,3.0675,3.0676,0,0,0,0,0,0,0,3.066,3.0661,3.0675,3.0667,3.0667,3.0665,3.0665,3.0676,3.0672,3.0665,3.0664,3.0665,3.067,3.0673,3.0674,3.0691,3.0675,3.0675,3.0676,3.0676,3.0727,3.0728,0,0,0,0,0,0,3.066,3.0661,3.0675,3.0675,3.0661,3.0665,3.0666,3.067,3.0672,3.0671,3.0665,3.0664,3.0672,3.0673,3.0674,3.0698,3.0675,3.0676,3.0677,3.0726,3.0727,3.0728,0,0,0,0,0,0,3.0659,3.0661,3.0674,3.0668,3.0669,3.0666,3.0671,3.067,3.0673,3.0672,3.0671,3.0669,3.0672,3.0673,3.0687,3.0698,3.0677,3.0678,3.0725,3.0726,3.0727,3.0744,0,0,0,0,0,0,3.0659,3.0661,3.0667,3.0668,3.067,3.0686,3.0671,3.0671,3.0674,3.0673,3.0675,3.0675,3.0671,3.0686,3.0688,3.0699,3.0678,3.0724,3.0726,3.0727,3.0743,3.0746,3.0748,0,0,0,0,0,3.0658,3.0671,3.0667,3.0669,3.0677,3.0687,3.0688,3.0683,3.0675,3.0682,3.0682,3.0675,3.0697,3.0687,3.069,3.0701,3.0723,3.0725,3.0727,3.0741,3.0745,3.0748,0,0,0,0,0,0,3.0671,3.0671,3.0667,3.068,3.0684,3.0684,3.0692,3.0687,3.0693,3.0691,3.0686,3.0687,3.0702,3.0703,3.0693,3.0721,3.0709,3.0711,3.0719,3.0723,3.0726,3.0725,3.0679,0,0,0,0,0,3.0676,3.0683,3.0683,3.0695,3.0697,3.0695,3.0698,3.0695,3.0698,3.07,3.07,3.0705,3.0713,3.0718,3.0725,3.0744,3.0745,3.0753,3.0756,3.0758,3.076,3.0771,3.0775,3.0734,3.0734,3.0734,0,0,3.0685,3.0686,3.0691,3.0698,3.07,3.0708,3.0696,3.0705,3.0711,3.0701,3.0714,3.0716,3.072,3.0737,3.0744,3.0738,3.0772,3.076,3.0762,3.0763,3.0774,3.0778,3.0781,3.0735,3.0735,3.0735,0,0,3.0706,3.0707,3.0718,3.0721,3.0725,3.0724,3.0727,3.0729,3.0729,3.0742,3.0736,3.0745,3.0758,3.0762,3.0766,3.0793,3.0786,3.0795,3.081,3.0821,3.0825,3.0828,3.0838,3.0841,3.0797,3.0797,3.0797,0,3.0717,3.0729,3.0725,3.0735,3.0739,3.0731,3.0743,3.0746,3.0752,3.0756,3.0749,3.0768,3.077,3.0789,3.0795,3.0799,3.0803,3.0794,3.0824,3.0827,3.083,3.084,3.0843,3.0798,3.0798,3.0798,3.0798,0,3.0743,3.0751,3.076,3.0766,3.0772,3.0783,3.0782,3.0788,3.0785,3.0785,3.08,3.0804,3.0812,3.0817,3.0814,3.0836,3.0832,3.0825,3.0813,3.0835,3.0844,3.0848,3.08,3.08,3.0799,3.0799,0,0,3.077,3.0776,3.0779,3.0783,3.0788,3.0795,3.0807,3.0815,3.0821,3.0827,3.0837,3.0851,3.0845,3.085,3.0848,3.0858,3.088,3.085,3.085,3.0856,3.0906,3.091,3.0915,3.0877,3.0878,3.0878,3.0906,0,3.0791,3.081,3.0808,3.0827,3.0836,3.0831,3.0841,3.0846,3.0848,3.0857,3.0859,3.0868,3.086,3.0863,3.0873,3.0875,3.089,3.0874,3.0888,3.0888,3.0885,3.0919,3.0923,3.0949,3.0909,3.091,3.091,0,3.0817,3.0824,3.0844,3.085,3.0853,3.0863,3.0872,3.088,3.0887,3.0887,3.0894,3.0891,3.0905,3.0894,3.0914,3.0903,3.0909,3.0911,3.0912,3.0913,3.0899,3.092,3.0956,3.096,3.0915,3.0915,3.0915,0,3.0835,3.085,3.0864,3.0867,3.0874,3.0881,3.0885,3.0891,3.0897,3.0906,3.091,3.092,3.0926,3.0935,3.0935,3.0927,3.0956,3.0944,3.0958,3.0958,3.0962,3.0962,3.1,3.0968,3.0968,3.0968,3.0968,0,3.0858,3.0871,3.0872,3.0881,3.0895,3.0895,3.0909,3.0912,3.0919,3.0929,3.0926,3.0935,3.0936,3.0947,3.0948,3.0965,3.0968,3.0969,3.0969,3.0969,3.0969,3.0972,3.097,3.0969,3.0968,3.0968,3.0968,0,3.088,3.0881,3.0896,3.0903,3.0905,3.0915,3.0921,3.093,3.0933,3.0946,3.0949,3.0953,3.0966,3.0968,3.0983,3.0984,3.1005,3.1003,3.1002,3.1002,3.1015,3.1013,3.1055,3.1061,3.1026,3.1026,3.1026,0,3.0894,3.0904,3.0912,3.0918,3.0922,3.0932,3.0939,3.094,3.0947,3.0957,3.0966,3.0978,3.0988,3.101,3.1014,3.1027,3.1025,3.1039,3.1027,3.1027,3.1025,3.1025,3.1026,3.1041,3.1041,3.1042,3.1042,0,3.092,3.092,3.0929,3.094,3.0948,3.0956,3.0964,3.097,3.0972,3.0981,3.0994,3.1002,3.1018,3.1031,3.1044,3.1049,3.1046,3.1046,3.105,3.1049,3.1048,3.1049,3.1008,3.1045,3.1045,3.1044,3.1044,3.1044,3.0938,3.0947,3.0954,3.0965,3.0971,3.0979,3.0989,3.0993,3.1004,3.1017,3.1017,3.1032,3.1041,3.1058,3.1065,3.1077,3.1073,3.1078,3.1079,3.108,3.1082,3.1047,3.108,3.108,3.108,3.108,3.1079,0,3.0963,3.0968,3.0978,3.099,3.0999,3.0997,3.1006,3.1014,3.1027,3.1036,3.1046,3.1063,3.1076,3.1083,3.1097,3.1106,3.1105,3.111,3.1108,3.111,3.1085,3.108,3.111,3.111,3.111,3.111,3.111,3.111,3.0977,3.0992,3.0995,3.1014,3.1019,3.1033,3.1039,3.1047,3.1054,3.1073,3.1084,3.1089,3.1097,3.1112,3.1125,3.1127,3.1132,3.1137,3.1139,3.1115,3.1111,3.1108,3.1104,3.1139,3.1139,3.1163,3.1163,3.1163]},{"header":{"parameterUnit":"m.s-1","parameterCategory":1,"la1":30.2991,"la2":30.254,"lo1":-89.0895,"lo2":-89.0444,"dy":0.0017,"dx":0.0017,"nx":28,"ny":28,"refTime":"2025-04-12T03:00:00:Z","depth":0,"parameterNumber":3,"parameterNumberName":"V-component_of_WINDS"},"data":[0,0,0,0,0,0,0,0,0,0,0,0,0,0,0,0,0,0,0,0,0,0,0,0,0,0,0,0,0,0,0,0,0,0,0,0,0,0,0,0,0,0,0,0,0,0,0,0,0,0,0,0,0,0,0,0,0,0,-5.6313,-5.6314,0,-5.6398,-5.6399,-5.64,-5.6404,-5.6403,-5.6402,-5.6401,-5.6484,-5.6487,-5.649,0,0,0,0,0,0,0,0,0,0,0,0,0,-5.6153,-5.6156,-5.6313,-5.6314,-5.6316,-5.6398,-5.6399,-5.64,-5.6404,-5.6403,-5.6402,-5.64,-5.6483,-5.6487,-5.6491,0,0,0,0,0,0,0,0,0,0,0,0,0,-5.6229,-5.6157,-5.6313,-5.6327,-5.6329,-5.6398,-5.6399,-5.6401,-5.6404,-5.6403,-5.6401,-5.64,-5.6482,-5.6486,-5.6491,-5.655,0,0,-5.6506,-5.6508,0,0,0,0,0,0,0,0,-5.6224,-5.6235,-5.6324,-5.6327,-5.6329,-5.6389,-5.6373,-5.6451,-5.6405,-5.6376,-5.6401,-5.6399,-5.6454,-5.646,-5.648,-5.6554,-5.6558,-5.6506,-5.6509,-5.6511,-5.6512,0,0,0,0,0,0,0,-5.6219,-5.6231,-5.6347,-5.6325,-5.6328,-5.6329,-5.6338,-5.6388,-5.6422,-5.6378,-5.6379,-5.6389,-5.6454,-5.6475,-5.6481,-5.6559,-5.6506,-5.651,-5.6513,-5.6515,-5.6689,-5.6691,0,0,0,0,0,0,-5.6212,-5.6227,-5.6344,-5.6349,-5.6272,-5.6333,-5.6343,-5.6371,-5.6421,-5.6428,-5.639,-5.6389,-5.6468,-5.6476,-5.6484,-5.6559,-5.6511,-5.6515,-5.6518,-5.6687,-5.6689,-5.6691,0,0,0,0,0,0,-5.6208,-5.6222,-5.6341,-5.6288,-5.6303,-5.6338,-5.6369,-5.6374,-5.6394,-5.643,-5.6436,-5.6405,-5.6467,-5.6478,-5.6535,-5.6561,-5.6517,-5.6522,-5.6685,-5.6688,-5.669,-5.6706,0,0,0,0,0,0,-5.6203,-5.6221,-5.6243,-5.6289,-5.6306,-5.639,-5.637,-5.6376,-5.6403,-5.6402,-5.6446,-5.6452,-5.6466,-5.6528,-5.6539,-5.6567,-5.6525,-5.6683,-5.6686,-5.6689,-5.6703,-5.6709,-5.6714,0,0,0,0,0,-5.6198,-5.6243,-5.6245,-5.6259,-5.6336,-5.6391,-5.6401,-5.6419,-5.6405,-5.6428,-5.6452,-5.645,-5.6557,-5.6533,-5.6547,-5.6576,-5.6681,-5.6685,-5.6689,-5.6701,-5.6708,-5.6714,0,0,0,0,0,0,-5.6198,-5.6249,-5.6251,-5.6313,-5.6348,-5.6392,-5.6421,-5.6425,-5.6463,-5.6461,-5.648,-5.649,-5.6546,-5.6567,-5.654,-5.6637,-5.6617,-5.6624,-5.6622,-5.6629,-5.6634,-5.6627,-5.6529,0,0,0,0,0,-5.6205,-5.6247,-5.6289,-5.634,-5.6358,-5.6387,-5.6412,-5.6422,-5.6459,-5.6473,-5.6501,-5.6536,-5.6578,-5.6604,-5.6644,-5.6707,-5.6717,-5.6734,-5.6739,-5.6743,-5.6749,-5.6785,-5.6794,-5.6704,-5.6704,-5.6704,0,0,-5.622,-5.6254,-5.6279,-5.6341,-5.6369,-5.6412,-5.6399,-5.6444,-5.6476,-5.648,-5.6536,-5.6558,-5.6598,-5.6659,-5.6687,-5.6677,-5.6776,-5.6748,-5.6751,-5.6755,-5.679,-5.6799,-5.6806,-5.6707,-5.6707,-5.6706,0,0,-5.627,-5.6299,-5.6346,-5.6376,-5.642,-5.644,-5.6451,-5.6495,-5.6511,-5.6568,-5.6572,-5.661,-5.6681,-5.671,-5.6734,-5.6799,-5.68,-5.6812,-5.6839,-5.6875,-5.6882,-5.6888,-5.6912,-5.6921,-5.6817,-5.6817,-5.6818,0,-5.6283,-5.6349,-5.6369,-5.6415,-5.6443,-5.6451,-5.6498,-5.6525,-5.658,-5.6599,-5.6588,-5.668,-5.6707,-5.6775,-5.6792,-5.6811,-5.6825,-5.6806,-5.6879,-5.6886,-5.6892,-5.6915,-5.6924,-5.6819,-5.6819,-5.6818,-5.6818,0,-5.6363,-5.6409,-5.6441,-5.6496,-5.6527,-5.6574,-5.6601,-5.663,-5.6639,-5.666,-5.6719,-5.6753,-5.6801,-5.6819,-5.6826,-5.6889,-5.6882,-5.6875,-5.6856,-5.6902,-5.6924,-5.6933,-5.6821,-5.682,-5.682,-5.6819,0,0,-5.6413,-5.6481,-5.6493,-5.6519,-5.657,-5.6605,-5.6653,-5.6702,-5.6728,-5.6766,-5.6807,-5.6868,-5.6863,-5.6891,-5.6902,-5.6933,-5.6985,-5.6923,-5.6924,-5.6934,-5.7058,-5.7063,-5.7073,-5.6986,-5.6988,-5.6989,-5.7055,0,-5.6469,-5.6555,-5.6576,-5.6649,-5.6693,-5.6702,-5.6744,-5.678,-5.6802,-5.6841,-5.6865,-5.6909,-5.6898,-5.6915,-5.6947,-5.6972,-5.701,-5.6968,-5.7024,-5.7026,-5.7014,-5.7085,-5.7089,-5.715,-5.7064,-5.7065,-5.7066,0,-5.6545,-5.6588,-5.6666,-5.6715,-5.6734,-5.6771,-5.6819,-5.6857,-5.6898,-5.6912,-5.6945,-5.6954,-5.7005,-5.6983,-5.7053,-5.7024,-5.7049,-5.7065,-5.7068,-5.7073,-5.7048,-5.7092,-5.7169,-5.7178,-5.708,-5.7079,-5.7078,0,-5.6575,-5.6652,-5.671,-5.6731,-5.6789,-5.6815,-5.684,-5.6881,-5.691,-5.6952,-5.6971,-5.7018,-5.7043,-5.7079,-5.7101,-5.7083,-5.717,-5.715,-5.7183,-5.7183,-5.72,-5.7199,-5.7282,-5.7216,-5.7216,-5.7216,-5.7215,0,-5.6635,-5.6683,-5.6724,-5.6759,-5.6814,-5.6838,-5.6891,-5.6916,-5.6953,-5.6993,-5.7004,-5.7041,-5.7068,-5.711,-5.7127,-5.7184,-5.7195,-5.7207,-5.7212,-5.7207,-5.7205,-5.7223,-5.7219,-5.7218,-5.7218,-5.7217,-5.7217,0,-5.6677,-5.6706,-5.677,-5.6821,-5.6835,-5.6873,-5.6916,-5.6951,-5.6974,-5.7025,-5.7039,-5.7075,-5.7125,-5.7151,-5.7212,-5.7224,-5.7288,-5.7289,-5.7274,-5.7276,-5.7308,-5.7305,-5.7405,-5.742,-5.7344,-5.7344,-5.7345,0,-5.6714,-5.6751,-5.6807,-5.6836,-5.6862,-5.6908,-5.6939,-5.6965,-5.6996,-5.7049,-5.7077,-5.7128,-5.717,-5.725,-5.7281,-5.7329,-5.7331,-5.7364,-5.7338,-5.7333,-5.7333,-5.7331,-5.7335,-5.7368,-5.7368,-5.7369,-5.7369,0,-5.6776,-5.6789,-5.6834,-5.6885,-5.6922,-5.6963,-5.7003,-5.7026,-5.7058,-5.7093,-5.7146,-5.7179,-5.7243,-5.7294,-5.7345,-5.737,-5.7376,-5.7378,-5.7388,-5.7383,-5.7373,-5.738,-5.7286,-5.7375,-5.7374,-5.7374,-5.7374,-5.7373,-5.6816,-5.6851,-5.6897,-5.6947,-5.6981,-5.7019,-5.7055,-5.7085,-5.7129,-5.7185,-5.7197,-5.7253,-5.7296,-5.7365,-5.7393,-5.7436,-5.743,-5.7444,-5.7448,-5.7451,-5.7453,-5.7367,-5.7445,-5.7445,-5.7445,-5.7445,-5.7445,0,-5.688,-5.6911,-5.6957,-5.7014,-5.7054,-5.7058,-5.7104,-5.7137,-5.7186,-5.7226,-5.7269,-5.733,-5.738,-5.7417,-5.7468,-5.7496,-5.75,-5.7509,-5.7507,-5.7513,-5.7456,-5.7442,-5.7505,-5.7505,-5.7505,-5.7505,-5.7505,-5.7505,-5.6918,-5.6978,-5.6997,-5.7074,-5.7105,-5.7161,-5.7187,-5.7222,-5.7255,-5.7324,-5.7366,-5.7391,-5.743,-5.7485,-5.7531,-5.7541,-5.7559,-5.7568,-5.7577,-5.7523,-5.7517,-5.751,-5.7498,-5.7571,-5.7572,-5.7631,-5.7632,-5.7632]}]]